Location: Newark
(44.3290°N, 23.7757°E)
Time: 20:11:58
(UTC+00:00)

ISS - Visible Passes

Search period start: 28 May 2023 00:00
Search period end: 07 June 2023 00:00
Orbit: 412 x 419 km, 51.6° (Epoch: 28 May)

Date Brightness Start Highest point End Pass type
(mag) Time Alt. Az. Time Alt. Az. Time Alt. Az.
28 May -3.6 19:14:19 10° WNW 19:17:38 62° SW 19:19:41 21° SE visible
29 May -1.6 20:03:24 10° W 20:05:22 15° SW 20:05:46 15° SW visible
30 May -2.1 19:14:08 10° W 19:16:55 24° SW 19:19:01 14° S visible
